Regional Weather Roundup
Issued by NWS Cleveland, OH

Home | Current Version | Previous Version | Graphics & Text | Print | Product List | Glossary On
Versions: 1 2 3 4 5 6 7 8 9 10 11 12 13 14 15 16 17 18 19 20 21 22 23 24 25 26 27 28 29 30 31 32 33 34 35 36 37 38 39 40 41 42 43 44 45 46 47 48 49 50
947
ASUS41 KCLE 230410
RWRCLE
OHIO REGIONAL WEATHER ROUNDUP
NATIONAL WEATHER SERVICE WILMINGTON, OH
1200 AM EDT THU MAR 23 2017

NOTE: "FAIR" INDICATES FEW OR NO CLOUDS BELOW 12,000 FEET WITH NO
SIGNIFICANT WEATHER AND/OR OBSTRUCTIONS TO VISIBILITY.

OHZ001>008-015>018-024>027-034-035-043-044-230500-
   NORTHWEST OHIO

CITY           SKY/WX    TMP DP  RH WIND       PRES   REMARKS
DEFIANCE       FAIR      26  14  60 SE7       30.53F WCI  18
FINDLAY        FAIR      25  15  66 E6        30.52F WCI  18
TOLEDO EXPRESS FAIR      24  15  68 SE3       30.54F
TOLEDO EXEC    FAIR      25  17  72 E5        30.55F WCI  19
LIMA           FAIR      25  18  74 E10       30.51S WCI  15
$$

OHZ009>014-019>023-028>033-038-089-230500-
   NORTHEAST OHIO

CITY           SKY/WX    TMP DP  RH WIND       PRES   REMARKS
CLE-HOPKINS    FAIR      25  13  60 S3        30.57S
CLE-LAKEFRONT  FAIR      27  15  61 CALM      30.55S
CUY CO. ARPT   NOT AVBL
LORAIN-ELYRIA  FAIR      22  15  75 CALM      30.55S
ASHTABULA      FAIR      22  14  71 CALM      30.54S
AKRON-CANTON   FAIR      20  11  68 NE6       30.51S WCI  12
WOOSTER        FAIR      22  14  71 NE5       30.52S WCI  16
MANSFIELD      FAIR      21  13  71 NE6       30.51R WCI  13
YOUNGSTOWN     FAIR      21  10  62 CALM      30.51F
$$

OHZ042-051>053-060>062-070>072-077>081-230500-
  SOUTHWEST OHIO

CITY           SKY/WX    TMP DP  RH WIND       PRES   REMARKS
CINC-COVINGTON FAIR      33  19  56 NE10      30.46S WCI  25
CINC-LUNKEN    FAIR      31  21  66 NE5       30.51R WCI  26
HAMILTON       FAIR      31  20  63 E5        30.51R WCI  26
DAYTON         FAIR      27  17  66 NE8       30.49S WCI  19
WRIGHT-PAT AFB FAIR      28  17  64 NE7       30.49F WCI  21
DAYTON GENERAL FAIR      29  19  66 NE8       30.48R WCI  21
WILMINGTON     FAIR      28  21  75 NE10      30.47F WCI  19
$$

OHZ036-037-039>041-045>050-054>059-063>069-073>076-082>088-230500-
  CENTRAL AND SOUTHEAST OHIO

CITY           SKY/WX    TMP DP  RH WIND       PRES   REMARKS
COLUMBUS       FAIR      29  16  58 NE9       30.51S WCI  20
OSU AIRPORT    FAIR      25  17  72 NE6       30.51S WCI  18
BOLTON FIELD   FAIR      28  20  71 NE8       30.51S WCI  20
RICKENBACK AFB FAIR      27  17  65 NE10      30.51S WCI  17
NEWARK         FAIR      28  13  53 NE5       30.51R WCI  23
MARION         FAIR      21  15  78 E7        30.52F WCI  12
LANCASTER      FAIR      31  17  56 NE10      30.50S WCI  22
ZANESVILLE     FAIR      28  12  51 N3        30.51R
NEW PHILLY     FAIR      26  12  55 N5        30.54R WCI  20
$$




USA.gov is the U.S. government's official web portal to all federal, state and local government web resources and services.